| time (UTC) | temp C | wind direction | speed KPH | gust KPH | rain 1hr cm | rain 24hr cm | rain mn cm | humidity % | barometer mb |
| 20260509044523 | 10 | 72 | 0.0 | 0.0 | 0.00 | 0.00 | 0.00 | 93 | 1019.1 |
| 20260509043021 | 9 | 72 | 0.0 | 0.0 | 0.00 | 0.00 | 0.00 | 93 | 1019.0 |
| 20260509041521 | 10 | 72 | 0.0 | 0.0 | 0.00 | 0.00 | 0.00 | 93 | 1018.8 |
| 20260509040021 | 10 | 72 | 0.0 | 0.0 | 0.00 | 0.00 | 0.00 | 93 | 1018.8 |
| 20260509034537 | 10 | 72 | 0.0 | 0.0 | 0.00 | 0.00 | 0.00 | 92 | 1018.6 |
| 20260509033018 | 10 | 72 | 0.0 | 0.0 | 0.00 | 0.00 | 0.00 | 92 | 1018.7 |
| 20260509031516 | 10 | 72 | 0.0 | 0.0 | 0.00 | 0.00 | 0.00 | 92 | 1018.8 |
| 20260509030020 | 10 | 72 | 0.0 | 0.0 | 0.00 | 0.00 | 0.00 | 91 | 1018.8 |
| 20260509024514 | 10 | 72 | 0.0 | 0.0 | 0.00 | 0.00 | 0.00 | 92 | 1018.9 |
| 20260509023012 | 10 | 72 | 0.0 | 0.0 | 0.00 | 0.00 | 0.00 | 91 | 1018.8 |
| 20260509021512 | 10 | 72 | 0.0 | 1.6 | 0.00 | 0.00 | 0.00 | 90 | 1018.8 |
| 20260509020010 | 10 | 72 | 0.0 | 1.6 | 0.00 | 0.00 | 0.00 | 90 | 1018.8 |
| 20260509014508 | 11 | 72 | 0.0 | 1.6 | 0.00 | 0.00 | 0.00 | 90 | 1018.8 |
| 20260509013008 | 11 | 72 | 0.0 | 0.0 | 0.00 | 0.00 | 0.00 | 90 | 1018.7 |
| 20260509011508 | 11 | 72 | 0.0 | 0.0 | 0.00 | 0.00 | 0.00 | 90 | 1018.8 |
| 20260509010008 | 11 | 72 | 0.0 | 0.0 | 0.00 | 0.00 | 0.00 | 90 | 1018.9 |
| 20260509004505 | 11 | 72 | 0.0 | 0.0 | 0.00 | 0.00 | 0.00 | 90 | 1018.8 |
| 20260509003003 | 12 | 72 | 0.0 | 0.0 | 0.00 | 0.00 | 0.00 | 87 | 1018.7 |
| 20260509001502 | 12 | 72 | 0.0 | 1.6 | 0.00 | 0.00 | 0.00 | 86 | 1018.8 |
| 20260509000002 | 11 | 238 | 0.0 | 0.0 | 0.00 | 0.00 | 0.00 | 87 | 1018.9 |
| 20260508234606 | 12 | 238 | 0.0 | 0.0 | 0.00 | 0.00 | 0.00 | 86 | 1019.0 |
| 20260508233058 | 12 | 239 | 0.0 | 0.0 | 0.00 | 0.00 | 0.00 | 88 | 1018.9 |
| 20260508231558 | 12 | 239 | 0.0 | 0.0 | 0.00 | 0.00 | 0.00 | 85 | 1018.9 |
| 20260508230057 | 12 | 239 | 0.0 | 0.0 | 0.00 | 0.00 | 0.00 | 86 | 1018.9 |
| 20260508224557 | 12 | 239 | 0.0 | 0.0 | 0.00 | 0.00 | 0.00 | 88 | 1019.0 |
| 20260508223054 | 12 | 239 | 0.0 | 0.0 | 0.00 | 0.00 | 0.00 | 87 | 1018.8 |
| 20260508221551 | 13 | 239 | 0.0 | 0.0 | 0.00 | 0.00 | 0.00 | 86 | 1018.6 |
| 20260508220047 | 13 | 240 | 0.0 | 0.0 | 0.00 | 0.00 | 0.00 | 86 | 1018.6 |
| 20260508214600 | 14 | 239 | 0.0 | 0.0 | 0.00 | 0.00 | 0.00 | 84 | 1018.6 |
| 20260508213045 | 14 | 240 | 0.0 | 1.6 | 0.00 | 0.00 | 0.00 | 83 | 1018.5 |
| 20260508211546 | 15 | 240 | 0.0 | 1.6 | 0.00 | 0.00 | 0.00 | 81 | 1018.4 |
| 20260508210047 | 15 | 77 | 0.0 | 1.6 | 0.00 | 0.00 | 0.00 | 81 | 1018.0 |
| 20260508204544 | 15 | 77 | 0.0 | 0.0 | 0.00 | 0.00 | 0.00 | 82 | 1018.0 |
| 20260508203044 | 15 | 77 | 1.6 | 3.2 | 0.00 | 0.00 | 0.00 | 81 | 1018.3 |
| 20260508201544 | 15 | 85 | 0.0 | 0.0 | 0.00 | 0.00 | 0.00 | 84 | 1018.4 |
| 20260508200045 | 16 | 85 | 0.0 | 0.0 | 0.00 | 0.00 | 0.00 | 84 | 1018.0 |
| 20260508194543 | 16 | 85 | 0.0 | 0.0 | 0.00 | 0.00 | 0.00 | 84 | 1017.8 |
| 20260508193056 | 16 | 85 | 0.0 | 0.0 | 0.00 | 0.00 | 0.00 | 83 | 1017.3 |
| 20260508191550 | 16 | 81 | 0.0 | 0.0 | 0.00 | 0.00 | 0.00 | 82 | 1016.9 |
| 20260508190053 | 17 | 81 | 0.0 | 1.6 | 0.00 | 0.00 | 0.00 | 78 | 1016.9 |
| 20260508184541 | 18 | 202 | 0.0 | 0.0 | 0.00 | 0.00 | 0.00 | 68 | 1016.8 |
| 20260508183052 | 18 | 152 | 0.0 | 0.0 | 0.00 | 0.00 | 0.00 | 67 | 1016.6 |
| 20260508181540 | 19 | 150 | 0.0 | 0.0 | 0.00 | 0.00 | 0.00 | 65 | 1016.4 |
| 20260508180055 | 19 | 127 | 0.0 | 1.6 | 0.00 | 0.00 | 0.00 | 64 | 1016.2 |
| 20260508174544 | 20 | 126 | 0.0 | 0.0 | 0.00 | 0.00 | 0.00 | 62 | 1016.0 |
| 20260508173039 | 20 | 123 | 0.0 | 1.6 | 0.00 | 0.00 | 0.00 | 61 | 1015.7 |
| 20260508171537 | 20 | 122 | 0.0 | 1.6 | 0.00 | 0.00 | 0.00 | 60 | 1015.6 |
| 20260508170038 | 20 | 119 | 0.0 | 0.0 | 0.00 | 0.00 | 0.00 | 58 | 1015.4 |
| 20260508164544 | 20 | 117 | 0.0 | 1.6 | 0.00 | 0.00 | 0.00 | 57 | 1015.4 |
| 20260508163036 | 21 | 79 | 0.0 | 1.6 | 0.00 | 0.00 | 0.00 | 53 | 1015.3 |
| 20260508161534 | 21 | 77 | 0.0 | 1.6 | 0.00 | 0.00 | 0.00 | 52 | 1015.3 |
| 20260508160036 | 22 | 76 | 0.0 | 1.6 | 0.00 | 0.00 | 0.00 | 51 | 1015.4 |
| 20260508154535 | 23 | 86 | 0.0 | 0.0 | 0.00 | 0.00 | 0.00 | 46 | 1015.5 |
| 20260508153042 | 23 | 167 | 0.0 | 1.6 | 0.00 | 0.00 | 0.00 | 44 | 1015.5 |
| 20260508151529 | 24 | 126 | 0.0 | 1.6 | 0.00 | 0.00 | 0.00 | 44 | 1015.7 |
| 20260508150032 | 23 | 81 | 0.0 | 1.6 | 0.00 | 0.00 | 0.00 | 45 | 1015.7 |
| 20260508144529 | 23 | 81 | 0.0 | 1.6 | 0.00 | 0.00 | 0.00 | 46 | 1015.8 |
| 20260508143025 | 22 | 82 | 0.0 | 3.2 | 0.00 | 0.00 | 0.00 | 47 | 1015.9 |
| 20260508141525 | 24 | 236 | 0.0 | 3.2 | 0.00 | 0.00 | 0.00 | 47 | 1016.1 |
| 20260508140025 | 23 | 87 | 0.0 | 1.6 | 0.00 | 0.00 | 0.00 | 45 | 1016.2 |
| 20260508134519 | 23 | 223 | 0.0 | 3.2 | 0.00 | 0.00 | 0.00 | 52 | 1016.3 |
| 20260508133017 | 23 | 97 | 0.0 | 4.8 | 0.00 | 0.00 | 0.00 | 55 | 1016.4 |
| 20260508131514 | 22 | 137 | 0.0 | 1.6 | 0.00 | 0.00 | 0.00 | 54 | 1016.6 |
| 20260508130027 | 22 | 81 | 0.0 | 6.4 | 0.00 | 0.00 | 0.00 | 58 | 1016.8 |
| 20260508124509 | 22 | 79 | 0.0 | 3.2 | 0.00 | 0.00 | 0.00 | 59 | 1017.0 |
| 20260508123012 | 22 | 84 | 0.0 | 1.6 | 0.00 | 0.00 | 0.00 | 63 | 1017.1 |
| 20260508121504 | 21 | 85 | 0.0 | 1.6 | 0.00 | 0.00 | 0.00 | 63 | 1017.4 |
| 20260508120003 | 21 | 94 | 0.0 | 8.0 | 0.00 | 0.00 | 0.00 | 64 | 1017.5 |
| 20260508114603 | 21 | 84 | 0.0 | 1.6 | 0.00 | 0.00 | 0.00 | 64 | 1017.5 |
| 20260508113108 | 20 | 236 | 0.0 | 1.6 | 0.00 | 0.00 | 0.00 | 64 | 1017.7 |
| 20260508111554 | 20 | 69 | 0.0 | 4.8 | 0.00 | 0.00 | 0.00 | 64 | 1017.8 |
| 20260508110105 | 20 | 76 | 0.0 | 1.6 | 0.00 | 0.00 | 0.00 | 66 | 1017.8 |
| 20260508104550 | 20 | 68 | 1.6 | 4.8 | 0.00 | 0.00 | 0.00 | 65 | 1018.0 |
| 20260508103059 | 19 | 102 | 0.0 | 4.8 | 0.00 | 0.00 | 0.00 | 68 | 1018.1 |
| 20260508101552 | 18 | 76 | 0.0 | 3.2 | 0.00 | 0.00 | 0.00 | 70 | 1018.2 |
| 20260508100042 | 17 | 219 | 0.0 | 3.2 | 0.00 | 0.00 | 0.00 | 72 | 1018.3 |
| 20260508094538 | 16 | 75 | 0.0 | 3.2 | 0.00 | 0.00 | 0.00 | 74 | 1018.6 |
| 20260508093040 | 16 | 84 | 0.0 | 3.2 | 0.00 | 0.00 | 0.00 | 74 | 1018.7 |
| 20260508091535 | 15 | 82 | 0.0 | 1.6 | 0.00 | 0.00 | 0.00 | 77 | 1018.9 |
| 20260508090029 | 13 | 244 | 0.0 | 3.2 | 0.00 | 0.00 | 0.00 | 82 | 1019.0 |
| 20260508084525 | 12 | 162 | 0.0 | 1.6 | 0.00 | 0.00 | 0.00 | 85 | 1019.1 |
| 20260508083024 | 12 | 248 | 0.0 | 3.2 | 0.00 | 0.00 | 0.00 | 85 | 1019.1 |
| 20260508081520 | 11 | 68 | 0.0 | 0.0 | 0.00 | 0.00 | 0.00 | 91 | 1019.0 |
| 20260508080017 | 10 | 243 | 0.0 | 1.6 | 0.00 | 0.00 | 0.00 | 92 | 1019.0 |
| 20260508074519 | 10 | 250 | 0.0 | 1.6 | 0.00 | 0.00 | 0.00 | 93 | 1018.9 |
| 20260508073013 | 9 | 250 | 0.0 | 1.6 | 0.00 | 0.00 | 0.00 | 93 | 1018.9 |
| 20260508071516 | 9 | 233 | 0.0 | 0.0 | 0.00 | 0.00 | 0.00 | 95 | 1018.9 |
| 20260508070013 | 8 | 221 | 0.0 | 0.0 | 0.00 | 0.00 | 0.00 | 95 | 1018.9 |
| 20260508064511 | 8 | 238 | 0.0 | 1.6 | 0.00 | 0.00 | 0.00 | 95 | 1019.0 |
| 20260508063015 | 8 | 249 | 0.0 | 1.6 | 0.00 | 0.00 | 0.00 | 95 | 1018.9 |
| 20260508061510 | 8 | 253 | 0.0 | 1.6 | 0.00 | 0.00 | 0.00 | 95 | 1018.8 |
| 20260508060008 | 8 | 253 | 0.0 | 0.0 | 0.00 | 0.00 | 0.00 | 95 | 1018.7 |
| 20260508054508 | 8 | 253 | 0.0 | 0.0 | 0.00 | 0.03 | 0.00 | 96 | 1018.6 |
| 20260508053007 | 7 | 253 | 0.0 | 0.0 | 0.00 | 0.03 | 0.00 | 96 | 1018.5 |
| 20260508051507 | 7 | 253 | 0.0 | 0.0 | 0.00 | 0.03 | 0.00 | 96 | 1018.5 |
| 20260508050008 | 7 | 253 | 0.0 | 0.0 | 0.00 | 0.03 | 0.00 | 96 | 1018.5 |